When you browse on this site, cookies collect data to enhance your experience and personalize the content and advertising you see.
Visit our Privacy Policy to learn more. By continuing to use the site, you agree to this use of cookies and data.
  • en France
  • Liste des pays
  • À 7 jours
  • Température de l'eau
  • Carte satellitaire
  • Carte météo
  • Widgets météo
  • user-avatar
    Se connecter

    Météo par heure à Brčko

    Ce jour, 27 Mai, Lundi

    Heure Température Précipitation Vent Pression Humidité
    00:00 +18°C° 0 mm 1 m/s 752 mmHg 91%
    01:00 +18°C° 0 mm 1 m/s 751 mmHg 92%
    02:00 +18°C° 0 mm 1 m/s 751 mmHg 92%
    03:00 +18°C° 0 mm 1 m/s 751 mmHg 92%
    04:00 +18°C° 0 mm 1 m/s 751 mmHg 92%
    05:00 +19°C° 0 mm 1 m/s 751 mmHg 90%
    06:00 +20°C° 0 mm 1 m/s 751 mmHg 88%
    07:00 +19°C° 0 mm 2 m/s 752 mmHg 86%
    08:00 +19°C° 1.7 mm 2 m/s 751 mmHg 88%
    09:00 +19°C° 1.7 mm 1 m/s 751 mmHg 89%
    10:00 +19°C° 1.7 mm 1 m/s 751 mmHg 91%
    11:00 +19°C° 1 mm 1 m/s 751 mmHg 90%
    12:00 +19°C° 1 mm 1 m/s 751 mmHg 88%
    13:00 +17°C° 1 mm 0 m/s 751 mmHg 87%
    14:00 +19°C° 0.6 mm 1 m/s 750 mmHg 88%
    15:00 +19°C° 0.6 mm 1 m/s 750 mmHg 89%
    16:00 +19°C° 0.6 mm 1 m/s 750 mmHg 90%
    17:00 +19°C° 0.2 mm 1 m/s 749 mmHg 92%
    18:00 +19°C° 0.2 mm 1 m/s 749 mmHg 94%
    19:00 +18°C° 0.2 mm 1 m/s 749 mmHg 97%
    20:00 +18°C° 0.1 mm 1 m/s 749 mmHg 97%
    21:00 +18°C° 0.1 mm 1 m/s 748 mmHg 97%
    22:00 +18°C° 0.1 mm 1 m/s 748 mmHg 97%
    23:00 +16°C° 0.1 mm 1 m/s 748 mmHg 97%

    Demain, 28 Mai, Mardi

    Heure Température Précipitation Vent Pression Humidité
    00:00 +16°C° 0.1 mm 1 m/s 748 mmHg 97%
    01:00 +15°C° 0.1 mm 1 m/s 747 mmHg 98%
    02:00 +15°C° 0.6 mm 1 m/s 747 mmHg 97%
    03:00 +15°C° 0.6 mm 1 m/s 746 mmHg 97%
    04:00 +15°C° 0.6 mm 2 m/s 746 mmHg 97%
    05:00 +16°C° 0.2 mm 2 m/s 746 mmHg 95%
    06:00 +16°C° 0.2 mm 2 m/s 746 mmHg 94%
    07:00 +17°C° 0.2 mm 2 m/s 746 mmHg 92%
    08:00 +18°C° 0.1 mm 2 m/s 746 mmHg 85%
    09:00 +20°C° 0.1 mm 3 m/s 746 mmHg 78%
    10:00 +22°C° 0.1 mm 3 m/s 746 mmHg 71%
    11:00 +24°C° 0.1 mm 3 m/s 746 mmHg 64%
    12:00 +25°C° 0.1 mm 3 m/s 746 mmHg 57%
    13:00 +27°C° 0.1 mm 3 m/s 746 mmHg 50%
    14:00 +27°C° 0 mm 3 m/s 746 mmHg 54%
    15:00 +27°C° 0 mm 2 m/s 745 mmHg 57%
    16:00 +27°C° 0 mm 2 m/s 745 mmHg 61%
    17:00 +25°C° 0.4 mm 2 m/s 746 mmHg 67%
    18:00 +23°C° 0.4 mm 2 m/s 746 mmHg 73%
    19:00 +20°C° 0.4 mm 2 m/s 746 mmHg 79%
    20:00 +19°C° 0 mm 2 m/s 746 mmHg 80%
    21:00 +18°C° 0 mm 2 m/s 747 mmHg 81%
    22:00 +17°C° 0 mm 2 m/s 747 mmHg 82%
    23:00 +16°C° 0 mm 2 m/s 747 mmHg 84%

    Après-demain, 29 Mai, Mercredi

    Heure Température Précipitation Vent Pression Humidité
    00:00 +16°C° 0 mm 1 m/s 747 mmHg 85%
    01:00 +15°C° 0 mm 1 m/s 748 mmHg 86%
    02:00 +15°C° 0 mm 1 m/s 748 mmHg 87%
    03:00 +15°C° 0 mm 1 m/s 748 mmHg 88%
    04:00 +15°C° 0 mm 1 m/s 748 mmHg 89%
    05:00 +16°C° 0 mm 1 m/s 748 mmHg 86%
    06:00 +16°C° 0 mm 0 m/s 748 mmHg 82%
    07:00 +18°C° 0 mm 0 m/s 749 mmHg 78%
    08:00 +21°C° 0.4 mm 1 m/s 749 mmHg 74%
    09:00 +22°C° 0.4 mm 1 m/s 749 mmHg 70%
    10:00 +24°C° 0.4 mm 2 m/s 749 mmHg 66%
    11:00 +25°C° 0.1 mm 2 m/s 749 mmHg 60%
    12:00 +26°C° 0.1 mm 2 m/s 749 mmHg 55%
    13:00 +27°C° 0.1 mm 2 m/s 749 mmHg 49%
    14:00 +26°C° 0.1 mm 2 m/s 749 mmHg 52%
    15:00 +26°C° 0.1 mm 2 m/s 749 mmHg 56%
    16:00 +26°C° 0.1 mm 2 m/s 749 mmHg 60%
    17:00 +23°C° 0.9 mm 2 m/s 750 mmHg 69%
    18:00 +20°C° 0.9 mm 2 m/s 750 mmHg 78%
    19:00 +18°C° 0.9 mm 2 m/s 750 mmHg 87%
    20:00 +17°C° 0.1 mm 3 m/s 751 mmHg 90%
    21:00 +14°C° 0.1 mm 3 m/s 751 mmHg 93%
    22:00 +13°C° 0.1 mm 3 m/s 752 mmHg 96%
    23:00 +13°C° 0 mm 3 m/s 752 mmHg 95%

    30 Mai, Jeudi

    Heure Température Précipitation Vent Pression Humidité
    00:00 +13°C° 0 mm 3 m/s 752 mmHg 95%
    01:00 +13°C° 0 mm 3 m/s 753 mmHg 95%
    02:00 +13°C° 0 mm 3 m/s 753 mmHg 95%
    03:00 +12°C° 0 mm 3 m/s 753 mmHg 95%
    04:00 +12°C° 0 mm 3 m/s 753 mmHg 95%
    05:00 +12°C° 0 mm 3 m/s 753 mmHg 93%
    06:00 +13°C° 0 mm 3 m/s 754 mmHg 91%
    07:00 +14°C° 0 mm 3 m/s 754 mmHg 89%
    08:00 +16°C° 0 mm 3 m/s 754 mmHg 84%
    09:00 +17°C° 0 mm 4 m/s 754 mmHg 80%
    10:00 +18°C° 0 mm 4 m/s 755 mmHg 75%
    11:00 +19°C° 0.1 mm 4 m/s 755 mmHg 73%
    12:00 +19°C° 0.1 mm 5 m/s 755 mmHg 71%
    13:00 +20°C° 0.1 mm 5 m/s 755 mmHg 69%
    14:00 +19°C° 0.1 mm 5 m/s 755 mmHg 71%
    15:00 +17°C° 0.1 mm 6 m/s 755 mmHg 73%
    16:00 +17°C° 0.1 mm 6 m/s 755 mmHg 75%
    17:00 +16°C° 0 mm 5 m/s 755 mmHg 78%
    18:00 +14°C° 0 mm 5 m/s 755 mmHg 81%
    19:00 +13°C° 0 mm 4 m/s 756 mmHg 84%
    20:00 +13°C° 0 mm 4 m/s 756 mmHg 84%
    21:00 +13°C° 0 mm 4 m/s 756 mmHg 84%
    22:00 +12°C° 0 mm 3 m/s 756 mmHg 84%
    23:00 +12°C° 0 mm 3 m/s 756 mmHg 85%

    31 Mai, Vendredi

    Heure Température Précipitation Vent Pression Humidité
    00:00 +12°C° 0 mm 3 m/s 756 mmHg 86%
    01:00 +12°C° 0 mm 3 m/s 756 mmHg 87%
    02:00 +12°C° 0 mm 3 m/s 756 mmHg 88%
    03:00 +11°C° 0 mm 3 m/s 756 mmHg 89%
    04:00 +11°C° 0 mm 3 m/s 756 mmHg 91%
    05:00 +11°C° 0.1 mm 3 m/s 756 mmHg 90%
    06:00 +12°C° 0.1 mm 4 m/s 756 mmHg 89%
    07:00 +12°C° 0.1 mm 4 m/s 756 mmHg 88%
    08:00 +12°C° 0.4 mm 4 m/s 755 mmHg 89%
    09:00 +12°C° 0.4 mm 4 m/s 755 mmHg 89%
    10:00 +13°C° 0.4 mm 4 m/s 755 mmHg 89%
    11:00 +15°C° 0.1 mm 4 m/s 755 mmHg 81%
    12:00 +18°C° 0.1 mm 4 m/s 755 mmHg 73%
    13:00 +20°C° 0.1 mm 4 m/s 755 mmHg 65%
    14:00 +20°C° 0 mm 4 m/s 754 mmHg 64%
    15:00 +21°C° 0 mm 4 m/s 754 mmHg 63%
    16:00 +21°C° 0 mm 4 m/s 754 mmHg 62%
    17:00 +20°C° 0 mm 4 m/s 754 mmHg 67%
    18:00 +19°C° 0 mm 3 m/s 754 mmHg 72%
    19:00 +18°C° 0 mm 2 m/s 754 mmHg 78%
    20:00 +17°C° 0.1 mm 2 m/s 754 mmHg 80%
    21:00 +16°C° 0.1 mm 2 m/s 754 mmHg 82%
    22:00 +16°C° 0.1 mm 2 m/s 754 mmHg 85%
    23:00 +14°C° 0.6 mm 3 m/s 754 mmHg 88%

    1 Juin, Samedi

    Heure Température Précipitation Vent Pression Humidité
    00:00 +14°C° 0.6 mm 3 m/s 754 mmHg 92%
    01:00 +14°C° 0.6 mm 4 m/s 753 mmHg 95%
    02:00 +14°C° 0.9 mm 4 m/s 753 mmHg 95%
    03:00 +14°C° 0.9 mm 4 m/s 753 mmHg 96%
    04:00 +14°C° 0.9 mm 4 m/s 753 mmHg 96%
    05:00 +14°C° 1.8 mm 4 m/s 753 mmHg 96%
    06:00 +14°C° 1.8 mm 4 m/s 753 mmHg 96%
    07:00 +14°C° 1.8 mm 5 m/s 754 mmHg 95%
    08:00 +14°C° 1.9 mm 5 m/s 754 mmHg 94%
    09:00 +15°C° 1.9 mm 5 m/s 754 mmHg 93%
    10:00 +15°C° 1.9 mm 5 m/s 754 mmHg 92%
    11:00 +17°C° 0.6 mm 4 m/s 754 mmHg 88%
    12:00 +18°C° 0.6 mm 4 m/s 754 mmHg 84%
    13:00 +19°C° 0.6 mm 4 m/s 754 mmHg 80%
    14:00 +19°C° 0.2 mm 5 m/s 754 mmHg 77%
    15:00 +20°C° 0.2 mm 5 m/s 754 mmHg 74%
    16:00 +20°C° 0.2 mm 5 m/s 754 mmHg 72%
    17:00 +19°C° 0.2 mm 5 m/s 754 mmHg 75%
    18:00 +18°C° 0.2 mm 4 m/s 754 mmHg 79%
    19:00 +17°C° 0.2 mm 3 m/s 754 mmHg 82%
    20:00 +16°C° 0.1 mm 3 m/s 755 mmHg 84%
    21:00 +14°C° 0.1 mm 3 m/s 755 mmHg 85%
    22:00 +13°C° 0.1 mm 3 m/s 755 mmHg 86%
    23:00 +13°C° 0.3 mm 3 m/s 755 mmHg 88%
    Voir plus